TimeEDT,TemperatureF,Dew PointF,Humidity,Sea Level PressureIn,VisibilityMPH,Wind Direction,Wind SpeedMPH,Gust SpeedMPH,PrecipitationIn,Events,Conditions,WindDirDegrees,DateUTC
12:54 AM,52.0,42.1,69,30.34,10.0,Calm,Calm,-,N/A,,Clear,0,2013-05-04 04:54:00
1:54 AM,52.0,39.9,63,30.32,10.0,Calm,Calm,-,N/A,,Clear,0,2013-05-04 05:54:00
2:54 AM,48.0,41.0,77,30.32,10.0,ESE,3.5,-,N/A,,Clear,110,2013-05-04 06:54:00
3:54 AM,46.9,39.9,77,30.32,10.0,East,4.6,-,N/A,,Clear,90,2013-05-04 07:54:00
4:54 AM,46.9,39.9,77,30.32,10.0,Calm,Calm,-,N/A,,Clear,0,2013-05-04 08:54:00
5:54 AM,46.9,39.9,77,30.34,10.0,ENE,4.6,-,N/A,,Clear,70,2013-05-04 09:54:00
6:54 AM,50.0,42.1,74,30.34,10.0,Calm,Calm,-,N/A,,Clear,0,2013-05-04 10:54:00
7:54 AM,55.9,42.1,60,30.35,10.0,Calm,Calm,-,N/A,,Clear,0,2013-05-04 11:54:00
8:54 AM,62.1,43.0,50,30.34,10.0,SSW,3.5,-,N/A,,Clear,200,2013-05-04 12:54:00
9:54 AM,66.0,44.1,45,30.34,10.0,Variable,3.5,-,N/A,,Clear,0,2013-05-04 13:54:00
10:54 AM,70.0,42.1,36,30.32,10.0,Variable,3.5,-,N/A,,Partly Cloudy,0,2013-05-04 14:54:00
11:54 AM,71.1,42.1,35,30.30,10.0,NW,8.1,-,N/A,,Partly Cloudy,310,2013-05-04 15:54:00
12:54 PM,73.0,39.0,29,30.28,10.0,West,11.5,-,N/A,,Partly Cloudy,280,2013-05-04 16:54:00
1:54 PM,75.0,37.9,26,30.26,10.0,NW,9.2,17.3,N/A,,Partly Cloudy,320,2013-05-04 17:54:00
2:54 PM,75.0,37.9,26,30.23,10.0,NNW,12.7,-,N/A,,Partly Cloudy,340,2013-05-04 18:54:00
3:54 PM,75.9,37.9,25,30.21,10.0,NW,10.4,-,N/A,,Partly Cloudy,310,2013-05-04 19:54:00
4:54 PM,75.9,39.0,26,30.20,10.0,WNW,9.2,-,N/A,,Partly Cloudy,300,2013-05-04 20:54:00
5:54 PM,75.0,39.0,27,30.19,10.0,NNW,9.2,-,N/A,,Partly Cloudy,340,2013-05-04 21:54:00
6:54 PM,73.9,39.0,28,30.18,10.0,North,5.8,-,N/A,,Partly Cloudy,350,2013-05-04 22:54:00
7:54 PM,72.0,39.0,30,30.18,10.0,Calm,Calm,-,N/A,,Partly Cloudy,0,2013-05-04 23:54:00
8:54 PM,64.0,42.1,45,30.19,10.0,Calm,Calm,-,N/A,,Clear,0,2013-05-05 00:54:00
9:54 PM,61.0,44.1,54,30.19,10.0,Calm,Calm,-,N/A,,Clear,0,2013-05-05 01:54:00
10:54 PM,61.0,42.1,50,30.20,10.0,SE,4.6,-,N/A,,Clear,140,2013-05-05 02:54:00
11:54 PM,55.9,44.1,64,30.21,10.0,Calm,Calm,-,N/A,,Clear,0,2013-05-05 03:54:00